#timestamp,LO_Frequency,Hit,StdDev 
1627678815.2,286046997.1,N
1627678835.0,286046997.6,N
1627678835.9,286046997.6,N
1627678855.8,286046997.3,N
1627678875.6,286046997.3,N
1627678925.5,286046997.9,E
1627678935.4,286046997.6,N
1627678955.2,286046996.9,P
1627678975.1,286046996.6,P
1627678976.0,286046996.6,Y
1627678995.8,286046999.8,P
1627679015.6,286047002.8,N
1627679035.5,286046999.9,N
1627679055.3,286046999.8,N
1627679075.1,286046999.8,N
1627679095.9,286047000.1,N
1627679115.7,286047000.2,N
1627679135.5,286047001.0,N
1627679155.4,286047000.0,N
1627679175.2,286047000.6,N
1627679195.0,286047000.5,N
1627679195.9,286047000.5,N
1627679215.8,286047000.9,N
1627679235.6,286047000.2,N
1627679255.4,286047000.3,N
1627679275.3,286047002.2,N
1627679295.1,286047002.8,N
1627679296.0,286047002.8,N
1627679315.8,286047000.3,N
1627679335.7,286047002.7,N
1627679355.5,286047000.2,N
1627679375.3,286046999.7,N
1627679395.2,286046999.8,N
1627679415.9,286046999.8,N
1627679435.7,286047000.2,N
1627679455.6,286046999.9,N
1627679475.4,286047000.0,N
1627679495.2,286047001.0,N
1627679515.1,286046998.3,N
1627679516.0,286046998.3,N
1627679535.8,286046998.9,N
1627679555.6,286047000.7,N
1627679575.5,286047000.3,N
1627679595.3,286046998.6,N
1627679615.1,286047000.5,N
1627679635.9,286047001.0,N
1627679655.7,286046999.9,N
1627679675.5,286047000.8,N
1627679695.4,286047000.8,N
1627679715.2,286047001.0,N
1627679735.0,286047000.4,N
1627679735.9,286047000.4,N
1627679755.8,286046998.2,N
1627679775.6,286046998.7,N
1627679795.4,286046998.4,N
1627679815.3,286047001.0,N
1627679835.1,286047001.2,N
1627679836.0,286047001.2,N
1627679855.8,286047000.8,N
1627679875.7,286047000.3,N
1627679895.5,286047000.9,N
1627679915.3,286047001.2,N
1627679935.1,286046998.6,N
1627679955.9,286047000.8,N
1627679975.7,286046998.1,N
1627679995.5,286047001.2,N
1627680015.4,286046998.3,N
1627680035.2,286046999.6,N
1627680055.0,286046998.5,N
1627680055.9,286046998.5,N
1627680075.8,286046999.3,N
1627680095.6,286046999.5,N
1627680115.4,286046999.1,N
1627680135.3,286046998.8,N
1627680155.1,286046999.4,N
1627680175.8,286046997.1,N
1627680195.7,286046996.6,N
1627680215.5,286046999.3,N
1627680235.3,286046998.8,N
1627680255.2,286046996.7,N
1627680275.0,286046999.0,N
1627680275.9,286046999.0,N
1627680295.7,286046999.1,N
1627680315.6,286046996.6,N
1627680335.4,286046997.0,N
1627680355.2,286046997.3,N
1627680375.1,286046997.4,N
1627680376.0,286046997.4,N
1627680395.8,286046997.7,N
1627680415.6,286046997.3,N
1627680435.5,286046997.2,N
1627680455.3,286046997.9,N
1627680475.1,286046999.5,N
1627680495.9,286046996.9,N
1627680515.7,286046997.8,N
1627680535.5,286046998.0,N
1627680555.4,286046995.4,Y
1627680575.2,286046999.6,P
1627680595.0,286046999.4,N
1627680595.9,286046999.4,N
1627680615.8,286046998.9,N
1627680635.6,286046998.8,N
1627680655.4,286046999.2,N
1627680675.3,286046999.2,N
1627680695.1,286046999.5,N
1627680715.8,286046998.9,N
1627680735.7,286046999.0,N
1627680755.5,286046998.5,Y
1627680775.3,286047000.2,P
1627680795.2,286047000.9,N
1627680815.0,286046998.6,N
1627680815.9,286046998.6,N
1627680835.7,286047001.1,N
1627680855.6,286046998.1,N
1627680875.4,286046999.0,N
1627680895.2,286046999.4,N
1627680915.1,286046999.1,N
1627680916.0,286046999.1,N
1627680935.8,286046999.5,N
1627680955.6,286046998.9,N
1627680975.5,286046999.3,N
1627680995.3,286046998.5,N
1627681015.1,286046998.4,N
1627681035.9,286046998.6,N
1627681055.7,286046998.7,N
1627681075.5,286046999.0,N
1627681095.4,286046999.0,N
1627681115.2,286046998.9,N
1627681135.0,286046998.5,N
1627681135.9,286046998.5,N
1627681155.8,286046999.0,N
1627681175.6,286047001.2,N
1627681195.4,286047001.1,N
1627681215.3,286046998.7,N
1627681235.1,286046998.7,N
1627681236.0,286046998.7,N
1627681255.8,286046998.8,N
1627681275.7,286046998.6,N
1627681295.5,286046999.1,N
1627681315.3,286046999.2,N
1627681335.2,286046996.9,Y
1627681355.9,286046998.6,P
1627681375.7,286046998.6,P
1627681395.6,286046998.2,P
1627681415.4,286046998.7,Y
1627681435.2,286047002.7,P
1627681455.1,286047002.0,N
1627681456.0,286047002.0,N
1627681475.8,286047002.0,N
1627681495.6,286047000.3,N
1627681515.5,286046999.8,N
1627681535.3,286047002.5,N
1627681555.1,286047000.2,N
1627681575.9,286047000.1,N
1627681595.7,286047002.7,N
1627681615.5,286047001.8,N
1627681635.4,286047002.4,N
1627681655.2,286047002.0,N
1627681675.0,286047002.2,N
1627681675.9,286047002.2,N
1627681695.8,286047002.8,N
1627681715.6,286047000.4,N
1627681735.4,286047000.9,N
1627681755.3,286046999.8,N
1627681775.1,286047002.3,N
1627681776.0,286047002.3,N
1627681795.8,286046999.7,N
1627681815.7,286047001.0,N
1627681835.5,286046999.8,N
1627681855.3,286046999.8,N
1627681875.2,286047002.4,N
1627681895.9,286047001.0,N
1627681915.7,286047000.8,N
1627681935.6,286047000.9,N
1627681955.4,286047000.0,N
1627681975.2,286047000.6,N
1627681995.1,286047000.4,N
1627681996.0,286047000.4,N
1627682015.8,286046999.8,N
1627682035.6,286047000.5,N
1627682055.5,286046999.4,N
1627682075.3,286046998.7,N
1627682095.1,286046998.3,N
1627682115.9,286046998.4,N
1627682135.7,286046998.1,N
1627682155.5,286046998.5,N
1627682175.4,286046999.3,N
1627682195.2,286046998.2,N
1627682215.0,286046998.5,N
1627682215.9,286046998.5,N
1627682235.8,286046998.7,N
1627682255.6,286046998.5,N
1627682275.4,286046998.2,N
1627682295.2,286046998.2,N
1627682315.1,286047001.1,N
1627682316.0,286047001.1,N
1627682335.8,286046999.0,N
1627682355.7,286046999.3,N
1627682375.5,286046996.5,Y
1627682395.3,286046999.3,P
